RYR3KJ LPPR-LIME

Flight info

Callsign RYR3KJ
Flight time N/A
Altitude 34000
Route BELDU DCT ADORO L155 ZMR N976 DGO T429 TOPTU DCT TOU DCT GAI DCT MEN DCT NINUN UN871 LATAM UL55 EMMEF DCT LAPRI DCT MOGBO DCT TOP M135 DIXER
Aircraft B738/M-SDGIJ1LRWY/SB1

Departure

Time 2026-05-01 11:46
Airport Francisco de Sá Carneiro Airport (LPPR)

Arrival

Time N/A
Airport Il Caravaggio International Airport (LIME)
Time Latitude Longitude Altitude Speed Heading
2026-05-01 11:18 41.23974 -8.67293 235 ft 0 kts 109°
2026-05-01 11:35 41.23974 -8.67294 235 ft 0 kts 109°
2026-05-01 11:35 41.23978 -8.67311 234 ft 2 kts 109°
2026-05-01 11:35 41.23983 -8.67330 234 ft 2 kts 109°
2026-05-01 11:35 41.23988 -8.67349 233 ft 2 kts 109°
2026-05-01 11:36 41.23992 -8.67368 231 ft 2 kts 112°
2026-05-01 11:36 41.24000 -8.67385 230 ft 2 kts 127°
2026-05-01 11:36 41.24010 -8.67400 230 ft 2 kts 138°
2026-05-01 11:36 41.24022 -8.67413 229 ft 2 kts 149°
2026-05-01 11:37 41.24035 -8.67421 228 ft 2 kts 161°
2026-05-01 11:37 41.24045 -8.67425 228 ft 0 kts 168°
2026-05-01 11:37 41.24052 -8.67427 228 ft 0 kts 170°
2026-05-01 11:40 41.24049 -8.67426 228 ft 3 kts 169°
2026-05-01 11:40 41.23988 -8.67428 228 ft 11 kts 200°
2026-05-01 11:40 41.23914 -8.67484 225 ft 13 kts 204°
2026-05-01 11:41 41.23829 -8.67477 225 ft 11 kts 167°
2026-05-01 11:41 41.23760 -8.67460 227 ft 10 kts 169°
2026-05-01 11:41 41.23685 -8.67442 229 ft 10 kts 173°
2026-05-01 11:41 41.23633 -8.67488 228 ft 9 kts 246°
2026-05-01 11:42 41.23614 -8.67593 223 ft 13 kts 258°
2026-05-01 11:42 41.23610 -8.67621 221 ft 2 kts 258°
2026-05-01 11:42 41.23608 -8.67636 220 ft 3 kts 258°
2026-05-01 11:42 41.23600 -8.67684 218 ft 6 kts 257°
2026-05-01 11:43 41.23591 -8.67747 217 ft 8 kts 271°
2026-05-01 11:43 41.23636 -8.67819 215 ft 6 kts 345°
2026-05-01 11:43 41.23639 -8.67820 215 ft 0 kts 348°
2026-05-01 11:45 41.23640 -8.67820 215 ft 1 kts 348°
2026-05-01 11:45 41.23889 -8.67894 210 ft 72 kts 346°
2026-05-01 11:45 41.24594 -8.68071 195 ft 134 kts 349°
2026-05-01 11:45 41.25688 -8.68357 234 ft 177 kts 348°
2026-05-01 11:46 41.26862 -8.68647 937 ft 173 kts 349°
2026-05-01 11:46 41.28075 -8.68936 1428 ft 186 kts 350°
2026-05-01 11:46 41.29327 -8.69244 2070 ft 186 kts 348°
2026-05-01 11:46 41.30648 -8.69640 2348 ft 203 kts 347°
2026-05-01 11:47 41.32079 -8.70059 2703 ft 216 kts 348°
2026-05-01 11:47 41.33599 -8.70474 3005 ft 232 kts 348°
2026-05-01 11:47 41.35243 -8.70914 3349 ft 249 kts 348°
2026-05-01 11:47 41.36970 -8.71377 3923 ft 257 kts 348°
2026-05-01 11:48 41.38781 -8.71739 4376 ft 269 kts
2026-05-01 11:48 41.40605 -8.71198 4956 ft 273 kts 29°
2026-05-01 11:48 41.42023 -8.69534 5584 ft 274 kts 60°
2026-05-01 11:48 41.42540 -8.67167 6220 ft 272 kts 93°
2026-05-01 11:49 41.42076 -8.64772 6858 ft 271 kts 116°
2026-05-01 11:49 41.41202 -8.62510 7436 ft 275 kts 116°
2026-05-01 11:49 41.40731 -8.60025 8045 ft 282 kts 93°
2026-05-01 11:49 41.40854 -8.57415 8648 ft 287 kts 85°
2026-05-01 11:50 41.41104 -8.54779 9217 ft 291 kts 85°
2026-05-01 11:50 41.41320 -8.52057 9797 ft 295 kts 87°
2026-05-01 11:50 41.41473 -8.49357 10361 ft 299 kts 89°
2026-05-01 11:50 41.41595 -8.46527 10660 ft 314 kts 89°
2026-05-01 11:51 41.41707 -8.43564 10963 ft 328 kts 89°
2026-05-01 11:51 41.41818 -8.40470 11231 ft 343 kts 89°
2026-05-01 11:51 41.41936 -8.37224 11494 ft 358 kts 89°
2026-05-01 11:51 41.42059 -8.33869 11862 ft 369 kts 90°
2026-05-01 11:52 41.42187 -8.30467 12371 ft 375 kts 89°
2026-05-01 11:52 41.42301 -8.27507 12864 ft 378 kts 89°
2026-05-01 11:52 41.42436 -8.24029 13512 ft 381 kts 89°
2026-05-01 11:52 41.42572 -8.20497 14135 ft 385 kts 90°
2026-05-01 11:53 41.42709 -8.16915 14753 ft 388 kts 90°
2026-05-01 11:53 41.42846 -8.13286 15342 ft 394 kts 90°
2026-05-01 11:53 41.42986 -8.09630 15977 ft 397 kts 90°
2026-05-01 11:53 41.43124 -8.05960 16555 ft 402 kts 90°
2026-05-01 11:54 41.43265 -8.02218 17125 ft 407 kts 90°
2026-05-01 11:54 41.43406 -7.98446 17729 ft 410 kts 90°
2026-05-01 11:54 41.43547 -7.94591 18333 ft 414 kts 90°
2026-05-01 11:54 41.43685 -7.90767 18879 ft 418 kts 90°
2026-05-01 11:55 41.43822 -7.86916 19437 ft 421 kts 90°
2026-05-01 11:55 41.43960 -7.82993 19988 ft 425 kts 90°
2026-05-01 11:55 41.44098 -7.79013 20491 ft 429 kts 89°
2026-05-01 11:55 41.44235 -7.75033 21020 ft 432 kts 89°
2026-05-01 11:56 41.44371 -7.71035 21496 ft 436 kts 89°
2026-05-01 11:56 41.44508 -7.66972 21956 ft 439 kts 90°
2026-05-01 11:56 41.44641 -7.62931 22413 ft 443 kts 90°
2026-05-01 11:56 41.44775 -7.58798 22869 ft 446 kts 90°
2026-05-01 11:57 41.44909 -7.54633 23272 ft 451 kts 90°
2026-05-01 11:57 41.45041 -7.50472 23748 ft 453 kts 90°
2026-05-01 11:57 41.45174 -7.46212 24163 ft 457 kts 90°
2026-05-01 11:57 41.45304 -7.41994 24616 ft 460 kts 90°
2026-05-01 11:58 41.45435 -7.37722 25056 ft 462 kts 90°
2026-05-01 11:58 41.45565 -7.33427 25478 ft 465 kts 90°
2026-05-01 11:58 41.45823 -7.24800 26297 ft 470 kts 90°
2026-05-01 11:59 41.45953 -7.20404 26629 ft 474 kts 90°
2026-05-01 11:59 41.46081 -7.16007 27089 ft 475 kts 90°
2026-05-01 11:59 41.46208 -7.11624 27468 ft 478 kts 90°
2026-05-01 12:00 41.46458 -7.02745 28204 ft 482 kts 90°
2026-05-01 12:00 41.46582 -6.98321 28711 ft 481 kts 90°
2026-05-01 12:00 41.46825 -6.89512 29898 ft 473 kts 90°
2026-05-01 12:01 41.46944 -6.85130 30370 ft 471 kts 90°
2026-05-01 12:01 41.47060 -6.80820 30733 ft 471 kts 90°
2026-05-01 12:01 41.47175 -6.76450 31128 ft 471 kts 90°
2026-05-01 12:01 41.47287 -6.72079 31530 ft 470 kts 90°
2026-05-01 12:02 41.47395 -6.67753 31895 ft 470 kts 90°
2026-05-01 12:02 41.47504 -6.63370 32307 ft 469 kts 90°
2026-05-01 12:02 41.47610 -6.59018 32655 ft 468 kts 90°
2026-05-01 12:02 41.47714 -6.54702 33021 ft 468 kts 90°
2026-05-01 12:03 41.47816 -6.50376 33400 ft 466 kts 90°
2026-05-01 12:03 41.47918 -6.46041 33788 ft 464 kts 90°
2026-05-01 12:03 41.48016 -6.41780 34094 ft 464 kts 90°
2026-05-01 12:04 41.48207 -6.33076 34148 ft 471 kts 91°
2026-05-01 12:04 41.48442 -6.24430 34149 ft 468 kts 89°
2026-05-01 12:05 41.49037 -6.15795 34148 ft 469 kts 86°
2026-05-01 12:05 41.50143 -6.02825 34147 ft 468 kts 86°
2026-05-01 12:06 41.50831 -5.94172 34148 ft 468 kts 86°
2026-05-01 12:06 41.51480 -5.85548 34145 ft 467 kts 86°
2026-05-01 12:07 41.52115 -5.76874 34139 ft 466 kts 86°
2026-05-01 12:07 41.52794 -5.68261 34134 ft 467 kts 84°
2026-05-01 12:08 41.54311 -5.59856 34134 ft 470 kts 71°
2026-05-01 12:08 41.56815 -5.51728 34134 ft 470 kts 66°
2026-05-01 12:09 41.59533 -5.43876 34135 ft 470 kts 65°
2026-05-01 12:09 41.62278 -5.35936 34136 ft 470 kts 66°
2026-05-01 12:10 41.66269 -5.24067 34139 ft 467 kts 67°
2026-05-01 12:11 41.70204 -5.12132 34145 ft 467 kts 68°
2026-05-01 12:11 41.72792 -5.04238 34151 ft 466 kts 68°